Valparaiso, IN

3:26 PM CST on February 11, 2016 (GMT -0600)
Porter County Municipal

Weather History for KVPZ - February, 2013

Change the Weather History Date:

Saturday, February 16, 2013

  Actual Average Record
Temperature  
Mean Temperature 19 °F 28 °F  
Max Temperature 24 °F 35 °F 60 °F (2006)
Min Temperature 13 °F 20 °F -8 °F (2007)
Degree Days  
Heating Degree Days 46 37  
Month to date heating degree days 592 627  
Since 1 July heating degree days 3953 4312  
Cooling Degree Days 0 0  
Month to date cooling degree days 0 0  
Year to date cooling degree days 0 0  
Moisture  
Dew Point 9 °F    
Average Humidity 69    
Maximum Humidity 86    
Minimum Humidity 48    
Precipitation  
Precipitation T in 0.06 in 0.39 in (2006)
Month to date precipitation 0.40 0.79  
Year to date precipitation 2.69 2.54  
Sea Level Pressure  
Sea Level Pressure 30.14 in    
Wind  
Wind Speed 9 mph (NW)    
Max Wind Speed 18 mph    
Max Gust Speed 26 mph    
Visibility 8 miles    
Events Snow    
T = Trace of Precipitation, MM = Missing Value Source: NWS Daily Summary

Daily Weather History Graph

Daily Weather History Graph

Search for Another Location

Airport or City:

Trip Planner

Search our weather history database for the weather conditions in past years. The results will help you decide how hot, cold, wet, or windy it might be!

Date:

Astronomy

Feb. 16, 2013 Rise Set
Actual Time 6:41 AM CST 5:23 PM CST
Civil Twilight 6:13 AM CST 5:51 PM CST
Nautical Twilight 5:40 AM CST 6:24 PM CST
Astronomical Twilight 5:08 AM CST 6:56 PM CST
Moon 9:48 AM CST (2/16) No Moon Set
Length of Visible Light 11h 38m
Length of Day
10h 42m
Waxing Crescent, 39% of the Moon is Illuminated
Feb 16
Waxing Crescent
Feb 17
First Quarter
Feb 25
Full
Mar 4
Last Quarter
Mar 11
New

Hourly Weather History & Observations

Time (CST) Temp. Windchill Dew Point Humidity Pressure Visibility Wind Dir Wind Speed Gust Speed Precip Events Conditions
12:27 AM 23.0 °F 13.1 °F 19.4 °F 86% 30.12 in 2.5 mi NNW 9.2 mph - 0.00 in Snow Light Snow
12:35 AM 21.2 °F 14.9 °F 17.6 °F 86% 30.12 in 6.0 mi NNW 4.6 mph - 0.00 in Snow Light Snow
12:42 AM 21.2 °F 14.9 °F 17.6 °F 86% 30.12 in 7.0 mi NW 4.6 mph - 0.00 in Snow Light Snow
12:53 AM 21.9 °F 12.5 °F 15.1 °F 75% 30.15 in 10.0 mi WNW 8.1 mph - 0.00 in   Mostly Cloudy
1:05 AM 21.2 °F 13.6 °F 12.2 °F 68% 30.12 in 10.0 mi WNW 5.8 mph - N/A   Scattered Clouds
1:53 AM 19.9 °F 9.3 °F 10.9 °F 68% 30.14 in 10.0 mi WNW 9.2 mph - N/A   Clear
2:43 AM 19.4 °F 8.6 °F 12.2 °F 74% 30.10 in 10.0 mi WNW 9.2 mph - N/A   Mostly Cloudy
2:53 AM 19.9 °F 9.3 °F 12.0 °F 71% 30.13 in 10.0 mi NW 9.2 mph - N/A   Mostly Cloudy
3:14 AM 19.4 °F 8.6 °F 12.2 °F 74% 30.10 in 10.0 mi NW 9.2 mph - N/A   Scattered Clouds
3:53 AM 19.0 °F 10.0 °F 10.0 °F 68% 30.13 in 10.0 mi NW 6.9 mph - N/A   Scattered Clouds
4:40 AM 17.6 °F 7.3 °F 8.6 °F 68% 30.10 in 10.0 mi NW 8.1 mph - N/A   Mostly Cloudy
4:53 AM 18.0 °F 8.7 °F 9.0 °F 68% 30.14 in 10.0 mi NW 6.9 mph - N/A   Overcast
5:07 AM 17.6 °F 6.4 °F 8.6 °F 68% 30.10 in 10.0 mi NW 9.2 mph - N/A   Mostly Cloudy
5:53 AM 17.1 °F 7.6 °F 8.1 °F 68% 30.14 in 10.0 mi NW 6.9 mph - N/A   Scattered Clouds
6:36 AM 15.8 °F 5.1 °F 6.8 °F 68% 30.11 in 10.0 mi WNW 8.1 mph - N/A   Mostly Cloudy
6:43 AM 15.8 °F 4.2 °F 6.8 °F 68% 30.11 in 10.0 mi WNW 9.2 mph - N/A   Scattered Clouds
6:53 AM 15.1 °F 4.2 °F 7.0 °F 70% 30.15 in 10.0 mi WNW 8.1 mph - N/A   Mostly Cloudy
7:41 AM 17.6 °F 3.2 °F 8.6 °F 68% 30.12 in 10.0 mi West 15.0 mph - N/A   Overcast
7:53 AM 17.1 °F 4.3 °F 8.1 °F 68% 30.16 in 10.0 mi WNW 11.5 mph - N/A   Overcast
8:53 AM 18.0 °F 4.8 °F 9.0 °F 68% 30.17 in 10.0 mi West 12.7 mph - N/A   Mostly Cloudy
9:01 AM 17.6 °F 5.7 °F 8.6 °F 68% 30.13 in 10.0 mi NW 10.4 mph - N/A   Mostly Cloudy
9:13 AM 19.4 °F 5.5 °F 6.8 °F 58% 30.13 in 10.0 mi NW 15.0 mph 24.2 mph N/A   Overcast
9:53 AM 19.0 °F 5.0 °F 5.0 °F 54% 30.17 in 10.0 mi NNW 15.0 mph 23.0 mph N/A   Mostly Cloudy
10:53 AM 19.0 °F 7.5 °F 6.1 °F 57% 30.17 in 10.0 mi NW 10.4 mph 24.2 mph 0.00 in   Overcast
11:53 AM 21.0 °F 8.1 °F 3.9 °F 48% 30.16 in 10.0 mi NW 13.8 mph 24.2 mph N/A   Mostly Cloudy
12:53 PM 21.0 °F 9.9 °F 7.0 °F 55% 30.14 in 10.0 mi NW 10.4 mph 16.1 mph N/A   Overcast
1:53 PM 19.0 °F 8.2 °F 8.1 °F 62% 30.14 in 6.0 mi NW 9.2 mph - 0.00 in Snow Light Snow
2:53 PM 19.9 °F 11.1 °F 7.0 °F 57% 30.14 in 10.0 mi Variable 6.9 mph - 0.00 in   Overcast
3:53 PM 19.0 °F 8.2 °F 10.0 °F 68% 30.14 in 10.0 mi North 9.2 mph - N/A   Overcast
4:53 PM 18.0 °F 11.1 °F 10.9 °F 74% 30.15 in 10.0 mi NNW 4.6 mph - 0.00 in   Overcast
5:18 PM 17.6 °F 6.4 °F 10.4 °F 73% 30.11 in 9.0 mi NW 9.2 mph - N/A   Overcast
5:27 PM 17.6 °F 8.2 °F 10.4 °F 73% 30.11 in 8.0 mi NNW 6.9 mph - N/A   Mostly Cloudy
5:37 PM 17.6 °F 8.2 °F 12.2 °F 79% 30.12 in 4.0 mi NNW 6.9 mph - 0.00 in Snow Light Snow
5:53 PM 17.1 °F 5.8 °F 12.0 °F 81% 30.17 in 3.0 mi NNW 9.2 mph - 0.00 in Snow Light Snow
5:59 PM 17.6 °F 8.2 °F 12.2 °F 79% 30.13 in 1.8 mi NW 6.9 mph - 0.00 in Snow Light Snow
6:11 PM 17.6 °F 6.4 °F 12.2 °F 79% 30.13 in 1.2 mi NW 9.2 mph - 0.00 in Snow Light Snow
6:19 PM 17.6 °F 10.7 °F 12.2 °F 79% 30.13 in 1.8 mi WNW 4.6 mph - 0.00 in Snow Light Snow
6:27 PM 17.6 °F 10.7 °F 12.2 °F 79% 30.13 in 3.0 mi NNW 4.6 mph - 0.00 in Snow Light Snow
6:53 PM 18.0 °F 7.7 °F 9.0 °F 68% 30.18 in 9.0 mi NNW 8.1 mph - 0.00 in   Overcast
7:16 PM 17.6 °F 10.7 °F 12.2 °F 79% 30.14 in 2.5 mi NNW 4.6 mph - 0.00 in Snow Light Snow
7:23 PM 17.6 °F 9.3 °F 10.4 °F 73% 30.14 in 6.0 mi NW 5.8 mph - 0.00 in Snow Light Snow
7:53 PM 18.0 °F 7.7 °F 5.0 °F 57% 30.19 in 9.0 mi NNW 8.1 mph - 0.00 in   Overcast
8:39 PM 17.6 °F 8.2 °F 6.8 °F 63% 30.15 in 10.0 mi WNW 6.9 mph - 0.00 in   Overcast
8:53 PM 15.1 °F 4.2 °F 6.1 °F 68% 30.19 in 10.0 mi WNW 8.1 mph - 0.00 in   Scattered Clouds
9:53 PM 14.0 °F 3.9 °F 7.0 °F 74% 30.19 in 10.0 mi West 6.9 mph - N/A   Mostly Cloudy
10:23 PM 14.0 °F 2.9 °F 5.0 °F 67% 30.15 in 10.0 mi West 8.1 mph - N/A   Overcast
10:53 PM 14.0 °F 2.9 °F 3.9 °F 64% 30.19 in 10.0 mi West 8.1 mph - N/A   Overcast
11:49 PM 14.0 °F 1.2 °F 3.2 °F 62% 30.14 in 10.0 mi WNW 10.4 mph - N/A   Scattered Clouds
11:53 PM 14.0 °F 2.0 °F 3.0 °F 62% 30.19 in 10.0 mi WNW 9.2 mph - N/A   Partly Cloudy